Theta_e
341 341 339 337 336 337 337 341 340 341 340 340 340 340 337 334 329 327 326 327 329 333 333 333 340 342 340 341 338 339 340 337 338 341 342 341 341 322 320 322 326 328 330 334 335 334 332 331 330 329 328 327 328 329 329 331 332 333 335 335 335 333 330 329 327 325 323 323 323 321 320 319 318 317
339 339 340 336 333 334 337 341 341 342 342 342 342 340 342 341 334 330 328 327 333 332 335 336 336 340 342 339 337 340 341 329 337 342 341 343 340 318 318 317 318 318 318 322 328 332 333 332 330 330 328 327 326 327 327 327 327 328 328 328 331 328 329 329 327 325 324 323 322 321 319 319 318 317
339 338 337 334 333 335 339 341 342 342 343 342 340 340 340 340 341 337 332 328 333 335 335 335 339 340 340 339 339 340 336 335 338 341 341 341 322 322 322 316 314 313 313 315 317 322 328 329 328 328 326 325 323 323 322 322 322 321 321 321 323 325 328 328 326 325 324 324 322 321 320 319 318 317
339 338 338 335 333 337 339 340 341 341 343 343 340 341 339 339 340 338 336 332 328 340 339 339 338 340 338 340 337 338 337 335 327 341 339 335 321 335 333 315 314 311 311 311 312 314 320 322 322 321 320 318 317 318 316 316 315 316 317 319 320 323 328 328 326 325 324 324 322 320 319 319 318 318
339 338 338 337 337 339 339 340 341 341 342 342 341 341 340 337 339 338 337 333 332 338 343 342 339 338 340 338 337 334 333 333 337 336 341 340 340 339 338 333 313 311 310 310 309 309 310 313 315 316 314 310 309 310 311 310 312 314 315 316 317 319 324 327 326 325 324 323 322 321 320 319 318 318
338 339 339 338 338 340 339 340 340 341 341 341 340 340 339 337 337 342 339 335 332 332 340 339 338 341 340 336 335 333 333 333 331 335 336 339 339 336 336 335 330 311 310 309 308 309 309 309 310 312 312 308 306 306 308 309 310 312 312 312 312 314 318 324 326 325 324 323 322 321 320 319 318 316
338 338 339 338 339 341 340 340 341 338 339 341 339 340 340 340 339 341 343 338 334 332 333 338 337 337 339 337 335 335 334 334 333 330 332 336 336 336 336 333 332 310 310 308 309 310 310 309 308 308 308 308 308 309 308 307 307 307 307 307 307 310 315 320 325 326 324 322 322 321 320 318 316 314
337 336 336 338 340 341 339 339 337 336 338 340 339 340 340 342 341 342 343 343 338 336 333 336 336 338 337 338 336 335 335 333 330 331 333 336 334 332 334 335 333 314 310 309 310 310 310 309 308 307 307 308 308 308 308 307 307 306 306 306 306 308 313 315 317 321 323 322 321 320 317 316 315 315
338 337 336 337 338 340 339 339 339 338 339 338 339 339 339 340 341 342 341 342 342 337 334 336 339 337 337 339 338 335 332 331 332 334 331 332 331 333 333 333 326 311 310 310 310 310 310 309 308 307 307 308 308 308 308 308 307 307 306 305 305 309 312 313 313 313 314 314 313 312 312 313 315 315
338 338 337 338 338 339 338 338 339 339 338 338 338 339 339 340 341 341 341 342 341 340 336 337 331 334 330 335 336 335 333 331 330 329 330 331 331 330 332 329 324 323 323 326 320 309 310 307 307 308 308 308 308 309 309 308 308 308 306 305 307 310 311 310 308 308 308 308 309 309 309 310 313 315
340 339 338 339 341 340 339 338 337 337 338 338 338 339 339 341 340 340 340 340 340 339 336 336 335 331 335 336 333 333 334 333 331 329 328 326 329 331 331 328 327 327 327 318 313 319 320 314 316 307 308 309 309 310 310 310 309 309 307 305 308 309 308 307 306 306 306 306 306 306 306 307 310 313
341 341 341 341 341 341 341 341 341 340 337 336 332 336 340 341 340 339 339 339 338 337 337 335 335 332 332 335 335 334 333 331 331 331 328 325 325 329 331 330 326 327 328 326 323 317 316 315 313 309 309 310 310 313 314 311 310 309 308 307 307 307 307 306 306 306 305 305 305 304 304 304 306 310
343 343 343 343 343 343 340 339 339 339 338 338 334 340 340 340 340 340 339 338 336 336 336 334 336 333 333 335 334 330 329 328 328 331 331 327 328 328 328 329 330 327 326 328 328 327 330 330 328 328 330 329 321 319 314 314 312 308 307 307 306 306 306 306 305 305 305 305 304 304 303 303 303 304
342 343 344 344 342 341 339 338 331 325 327 331 338 342 341 340 339 337 338 336 336 335 333 333 333 330 330 332 334 332 333 333 333 330 330 327 327 328 327 328 329 329 329 326 325 326 327 330 329 330 328 330 329 326 322 315 310 307 305 306 306 305 305 305 305 304 304 304 304 304 304 303 303 302
340 342 343 344 342 341 339 338 324 321 319 320 320 322 326 333 337 338 338 337 337 334 333 333 333 333 333 333 336 336 334 333 331 330 330 328 327 325 322 321 327 331 329 327 326 325 328 330 327 327 326 328 327 323 316 305 305 306 306 305 305 305 304 304 304 304 303 303 303 303 302 302 302 301
338 339 340 342 343 342 343 343 340 329 319 315 315 313 315 316 316 313 335 340 334 335 334 333 337 334 334 335 337 336 335 332 332 331 330 329 327 326 323 322 323 329 330 327 326 324 327 329 328 326 328 327 322 316 307 303 304 305 305 305 304 304 304 303 303 303 303 303 302 302 301 301 301 300
338 338 339 339 341 342 340 340 340 340 337 320 316 318 317 317 312 308 304 307 334 338 336 336 334 335 335 334 335 338 336 336 333 331 328 329 328 327 325 325 325 328 330 328 325 323 324 326 326 326 327 328 325 318 307 304 304 304 304 304 303 303 303 303 303 303 302 302 302 301 301 300 300 299
340 339 339 338 340 342 343 342 343 343 340 340 335 333 335 337 334 317 308 308 307 320 337 339 336 339 339 335 337 339 339 337 332 330 328 330 329 328 327 329 329 332 329 327 326 323 323 325 326 325 326 327 325 320 306 303 303 304 304 304 303 302 302 302 302 302 302 301 301 301 300 299 298 298
342 341 340 341 341 342 343 344 342 344 344 343 339 338 339 339 340 340 339 339 339 338 338 340 337 337 341 342 341 343 342 342 337 335 333 332 331 331 332 331 332 331 330 331 328 320 323 324 324 325 325 326 324 321 305 302 303 303 304 304 303 302 302 302 302 302 301 301 301 300 300 299 298 297
343 343 342 342 340 341 341 335 319 329 344 344 342 340 341 340 340 341 338 326 328 345 347 343 340 338 345 331 341 343 343 341 341 336 335 334 332 329 326 324 328 325 327 331 327 324 322 323 323 324 326 326 324 323 320 304 304 304 304 303 302 302 301 301 301 301 301 301 300 300 299 298 297 298
344 344 343 343 341 341 341 327 308 311 324 343 341 341 341 341 341 339 341 317 312 309 304 300 300 309 313 311 311 312 315 332 334 336 331 329 330 326 323 324 325 323 326 326 329 325 321 323 325 323 324 326 324 324 322 318 304 303 303 303 302 302 301 301 301 301 301 300 300 299 298 298 298 298
344 344 341 342 343 343 343 312 306 307 325 341 340 340 339 339 339 340 341 340 332 305 305 301 298 299 304 307 305 306 308 310 322 336 328 330 330 326 325 322 323 325 326 325 327 325 322 325 325 323 324 324 325 325 324 320 311 302 302 301 301 301 301 301 300 300 300 300 300 299 298 298 299 307
342 343 341 336 336 341 336 305 306 304 326 341 341 339 339 337 338 340 342 340 337 335 335 335 333 326 318 331 336 332 305 307 321 338 335 333 329 325 324 324 323 321 324 328 330 322 323 324 323 324 319 318 322 325 323 321 322 321 320 314 311 301 301 301 301 300 300 300 299 299 298 298 300 314
340 341 343 336 314 310 311 303 301 304 310 338 342 341 337 337 336 339 341 341 339 337 335 337 337 337 338 336 337 338 332 328 331 336 337 335 331 328 326 326 324 322 323 328 328 323 325 326 322 325 322 318 316 321 322 323 324 323 323 320 319 303 302 301 301 298 299 299 299 298 298 299 299 315
337 338 339 342 319 308 308 303 298 301 303 316 342 342 340 340 338 329 336 337 333 339 338 338 339 338 339 338 338 336 336 333 333 333 336 338 335 330 327 325 325 324 325 330 318 326 324 325 322 323 322 323 322 319 321 323 324 323 323 322 321 317 315 315 313 311 299 298 298 297 298 299 297 305
335 337 339 341 323 304 306 305 301 299 301 302 336 341 318 316 313 334 333 335 335 336 338 337 334 334 336 337 335 334 335 333 332 335 335 337 338 336 332 329 327 324 324 332 310 326 324 324 324 322 322 320 321 322 319 320 322 324 324 323 322 322 320 320 319 319 315 314 311 303 306 298 300 298
330 335 338 339 323 300 302 303 302 300 299 303 322 314 309 309 307 319 336 334 334 337 334 334 331 335 335 335 334 334 334 334 336 335 337 337 338 338 335 333 334 330 329 331 328 328 327 325 325 325 320 321 319 320 319 319 319 323 322 322 323 322 322 321 319 319 320 318 319 303 300 298 297 298
330 329 329 321 298 302 299 300 300 300 301 313 307 304 304 303 308 334 331 330 332 330 331 332 335 335 335 334 332 332 335 336 336 337 338 337 338 337 336 333 330 333 332 329 326 327 328 326 325 327 326 322 319 318 317 321 321 320 318 322 322 322 322 321 319 318 319 320 320 314 317 314 311 309
326 311 298 297 298 299 300 298 298 299 301 300 302 302 301 313 328 330 331 331 331 331 330 332 332 335 335 334 334 337 337 336 338 338 337 338 338 337 336 336 335 334 333 330 327 326 328 327 327 327 325 324 322 322 319 317 319 320 320 320 318 321 321 323 322 320 318 319 319 318 317 317 316 315
298 297 299 299 300 305 308 312 316 321 321 301 299 299 304 319 324 328 329 330 329 330 332 333 331 332 335 335 337 337 337 337 336 335 335 335 334 334 332 331 330 332 333 331 328 327 327 327 328 328 324 324 323 322 322 319 320 319 318 319 321 320 321 321 321 322 319 319 319 319 320 319 318 317
314 313 308 313 307 306 304 307 310 314 314 314 314 313 314 317 323 327 329 330 331 331 333 330 331 334 335 337 336 335 335 335 336 337 333 333 332 331 330 328 327 327 329 331 329 328 328 328 327 328 323 322 323 323 325 323 320 319 319 320 320 319 320 322 321 321 321 321 321 319 320 319 319 317
326 324 315 312 317 320 321 321 320 322 324 322 321 325 322 319 321 324 326 328 333 333 332 332 334 332 334 333 333 334 335 334 332 335 332 331 330 328 330 326 324 325 325 327 328 328 321 329 328 327 327 324 322 323 323 323 320 320 320 319 319 321 323 320 321 321 323 322 320 319 319 319 318 320
319 321 321 320 321 322 320 320 321 322 322 321 321 324 326 322 321 322 325 326 328 330 330 330 331 331 332 334 334 333 332 330 331 331 331 333 332 329 329 326 324 323 322 322 324 326 328 328 329 329 328 327 326 326 323 319 321 322 320 320 320 319 321 322 322 322 324 322 320 320 319 320 320 320
315 317 319 320 320 320 322 322 321 322 322 322 321 321 313 321 321 321 323 326 328 330 329 331 331 330 330 332 333 332 330 332 331 329 321 331 331 326 326 325 324 326 323 322 323 323 324 326 328 327 328 328 328 327 326 323 321 322 322 321 321 319 320 323 322 323 324 321 320 318 318 319 321 321
315 316 317 319 320 320 321 321 322 322 323 322 322 323 322 321 320 317 322 325 325 326 327 329 329 328 328 329 330 330 330 330 331 330 329 330 331 327 326 325 324 324 324 323 324 325 324 322 323 323 323 324 323 326 318 328 324 323 323 321 322 321 321 323 323 322 324 322 321 318 319 320 320 322
312 315 316 318 320 322 321 321 321 323 325 325 325 325 325 322 321 320 322 325 327 327 327 327 326 329 328 328 328 328 328 326 329 329 327 327 327 326 326 326 324 326 326 326 325 327 325 324 323 321 319 319 318 318 321 315 317 326 322 321 322 322 323 324 323 324 322 322 321 319 318 317 317 320
313 316 316 317 319 321 322 323 324 325 326 327 327 327 326 325 324 323 325 324 326 325 327 328 328 329 329 328 326 323 326 327 328 329 326 326 325 326 326 324 322 325 325 326 327 327 327 325 325 322 320 319 318 316 319 328 313 314 327 323 323 323 323 323 322 321 322 322 321 321 319 319 318 320
313 314 315 316 318 320 322 324 324 323 324 325 326 326 327 327 328 327 327 326 324 324 325 327 328 328 330 327 328 329 330 329 330 329 326 327 325 325 325 325 324 325 325 326 327 326 327 326 324 323 321 319 318 317 316 324 324 318 311 324 323 323 322 321 319 320 321 322 321 322 322 319 319 322
313 313 315 314 315 318 321 322 323 325 326 326 326 326 327 327 328 328 326 324 325 325 327 327 327 329 329 332 328 328 329 329 328 328 328 327 326 326 325 325 325 326 325 325 326 327 326 326 325 325 323 321 320 320 321 317 314 322 318 307 321 324 322 321 320 320 319 319 320 323 323 324 316 297
313 313 314 314 315 317 319 322 324 325 325 326 327 328 327 325 327 327 327 324 324 325 327 326 326 325 330 330 329 331 330 330 328 328 327 326 326 325 326 326 325 325 325 324 324 325 325 325 326 325 326 326 327 327 325 312 318 326 325 315 304 317 326 323 320 319 318 319 321 319 319 320 320 323
313 315 315 315 316 316 317 320 322 323 325 326 327 322 327 328 327 327 327 327 320 325 325 327 327 328 329 331 332 330 328 327 327 327 329 326 321 321 320 312 323 324 324 324 324 324 324 329 328 308 322 330 329 328 319 315 313 313 315 315 305 302 302 303 322 323 320 320 319 318 317 317 316 317
313 313 316 316 316 317 318 319 322 322 324 325 326 327 328 327 326 316 323 312 325 325 326 327 327 327 328 331 332 322 329 327 326 324 325 325 326 324 316 319 324 325 324 322 323 324 328 330 320 324 327 326 322 308 310 310 312 313 310 316 318 305 300 297 297 300 320 321 320 306 311 313 316 314
312 313 313 314 317 317 318 320 322 322 323 325 325 327 327 327 327 326 325 325 324 323 324 326 328 328 329 330 330 330 330 328 327 326 325 325 326 325 324 324 324 326 326 325 326 326 326 324 324 322 323 323 321 314 308 311 311 312 310 310 313 309 317 297 296 296 297 299 301 309 319 313 308 307
314 316 316 316 316 317 320 321 322 323 324 325 324 325 326 326 326 326 326 325 324 323 324 325 326 328 329 329 329 329 328 327 327 325 323 324 325 327 325 324 322 325 326 327 325 324 322 321 321 321 321 315 319 316 313 313 311 310 313 312 311 309 311 311 318 303 299 297 295 296 296 297 301 300
315 317 318 318 319 319 319 321 322 323 323 323 324 326 325 326 324 325 326 325 324 325 323 324 325 327 327 323 324 320 323 316 321 323 323 324 322 324 324 326 322 323 325 325 321 317 319 319 319 320 320 318 317 315 312 310 310 310 308 306 305 308 312 311 311 309 309 312 305 297 297 295 296 296
Wind_Speed
8 6 6 5 2 3 8 6 6 6 5 6 5 6 7 7 6 7 7 6 4 4 3 6 7 6 7 7 8 7 7 9 7 6 5 6 7 7 6 7 6 6 7 7 7 8 8 8 9 9 9 10 11 12 12 13 13 13 7 8 9 10 10 12 13 12 12 12 12 11 10 9 8 8
6 6 5 4 3 4 8 6 5 6 6 6 6 6 5 5 5 6 7 7 7 7 13 8 8 7 7 7 7 6 7 7 6 4 4 6 7 9 7 6 6 7 7 7 7 6 7 7 8 9 9 10 11 11 12 12 12 12 11 8 6 9 11 13 13 12 12 12 12 11 10 9 8 7
8 8 8 7 5 9 8 7 7 7 7 7 7 6 5 5 4 4 5 6 4 4 5 6 7 8 9 7 6 6 6 5 1 5 5 7 11 10 7 7 6 7 7 7 6 5 6 7 7 8 9 9 10 11 11 11 11 10 10 7 5 7 10 12 12 13 13 12 12 11 10 9 9 8
8 8 9 8 7 8 7 7 8 8 8 7 7 6 6 5 5 5 5 5 8 8 7 6 8 9 9 7 8 7 6 6 5 5 4 9 10 6 6 7 8 8 7 6 6 6 7 7 8 8 8 9 9 11 11 11 10 8 8 7 3 7 9 13 12 13 13 13 12 11 10 9 9 9
7 8 9 9 10 8 8 8 8 8 8 8 7 6 6 6 6 6 6 6 7 4 5 4 2 8 9 8 8 8 7 8 6 4 6 8 6 6 6 6 9 9 7 6 5 5 6 6 7 7 7 8 9 10 10 8 9 8 7 6 5 4 9 12 13 13 14 13 12 11 11 10 10 10
7 7 8 9 9 8 9 8 9 7 8 8 7 7 7 7 7 7 6 7 7 10 5 4 5 6 9 8 8 8 8 8 8 7 6 6 5 4 5 5 6 10 7 6 5 5 5 5 6 6 6 7 5 5 6 6 7 7 7 6 6 2 8 11 12 14 14 13 12 11 11 11 11 11
8 8 8 9 8 7 9 9 7 7 9 8 8 8 7 7 7 7 7 6 6 9 10 10 10 9 8 7 8 8 7 6 7 8 7 5 4 3 3 5 7 8 7 6 5 5 6 6 5 6 7 6 5 5 7 7 7 7 6 6 5 3 8 12 12 14 13 12 12 11 13 12 11 10
9 9 9 8 9 9 9 9 7 9 10 7 7 8 7 7 8 7 8 7 6 6 8 9 10 9 9 7 8 7 7 7 7 6 6 5 5 5 4 4 7 8 8 7 6 6 6 6 6 6 6 6 5 7 7 7 8 7 6 5 5 3 9 12 12 12 12 11 12 13 12 12 11 10
9 9 8 9 9 9 8 8 9 8 9 8 7 7 8 8 7 7 7 7 7 7 9 9 5 3 1 5 8 7 8 7 6 6 6 6 6 5 5 5 9 12 10 8 7 7 6 6 7 6 5 4 5 7 7 8 8 8 7 5 3 4 10 13 13 12 11 12 13 12 11 9 9 10
9 9 9 8 8 9 8 8 7 7 8 8 8 8 8 7 7 8 7 7 8 7 8 9 8 5 8 6 8 9 8 7 7 7 6 5 5 6 5 5 6 7 6 5 6 6 6 6 5 5 3 2 3 5 8 8 9 9 8 7 1 9 13 14 14 14 13 13 12 11 11 9 8 8
9 9 8 8 7 9 9 9 8 8 8 7 7 9 8 8 8 8 7 8 9 8 8 8 10 7 6 7 8 9 8 7 7 8 7 6 6 6 5 5 4 5 6 8 9 6 6 7 4 6 4 2 1 1 8 10 10 11 9 6 9 14 15 15 15 14 13 13 12 11 10 9 8 8
8 8 8 8 8 9 9 9 8 8 7 5 7 9 8 8 8 8 8 8 9 8 9 8 9 9 6 8 9 7 8 8 7 7 7 7 6 6 5 5 5 4 6 6 5 6 8 5 6 8 7 6 2 4 6 10 11 12 9 6 11 14 15 15 14 13 13 12 11 10 9 9 10 10
8 8 8 8 8 8 8 10 8 7 6 8 10 9 8 8 8 8 8 9 9 9 9 9 8 6 6 9 9 9 9 10 9 7 6 6 6 6 6 5 4 4 5 5 6 6 5 6 6 7 5 3 5 9 8 8 10 11 7 7 12 13 14 14 13 13 12 11 10 10 9 9 10 10
8 8 8 7 9 10 11 10 10 7 6 4 5 4 6 7 5 8 9 9 9 9 10 10 9 11 12 12 10 10 10 9 7 8 7 7 6 6 5 5 4 4 4 4 4 4 3 2 2 0 3 3 3 5 6 7 6 6 5 8 12 12 13 13 13 12 12 11 10 10 9 9 10 10
7 8 8 8 9 10 11 11 11 10 9 7 9 6 4 5 9 11 9 9 9 11 11 10 10 10 10 10 10 10 10 9 9 8 8 6 6 7 6 6 6 4 5 4 4 3 4 5 3 2 3 4 4 5 6 7 6 6 6 7 10 12 12 12 12 11 11 10 10 10 10 9 8 9
7 7 8 8 7 9 11 11 11 10 10 11 10 9 8 9 10 7 4 4 7 11 9 9 6 8 10 10 10 9 9 9 9 8 8 8 8 7 7 5 5 7 6 5 5 4 4 5 3 3 3 4 5 5 6 5 6 6 7 8 8 10 11 11 10 11 11 11 10 10 10 9 9 9
8 7 7 8 7 7 13 12 11 12 12 13 13 11 8 7 7 11 11 4 3 6 8 8 8 10 9 11 10 10 10 9 10 9 9 8 8 7 7 6 4 8 7 5 5 4 5 5 4 4 4 4 4 5 6 5 6 6 8 9 8 7 8 9 9 10 10 10 11 11 10 10 9 8
9 9 8 8 8 8 9 10 10 10 10 9 9 9 8 9 10 11 11 12 8 6 6 7 7 7 8 9 10 11 9 10 10 9 9 9 8 8 7 7 3 8 7 7 4 4 5 5 4 6 5 4 4 5 5 4 6 6 7 8 8 8 8 8 8 9 9 9 10 10 10 9 9 8
10 11 9 9 9 8 9 8 10 11 10 10 9 11 12 11 10 10 10 9 9 8 8 6 7 9 9 1 7 4 8 8 8 8 9 9 9 8 6 3 5 6 7 7 5 6 5 6 5 5 5 5 5 5 6 5 5 6 6 8 8 8 8 8 9 8 7 8 9 9 9 9 8 8
10 11 11 10 10 9 9 9 11 10 9 10 10 10 10 10 10 9 8 8 9 5 4 7 9 11 5 6 8 6 6 6 4 6 7 8 7 8 7 8 7 7 8 8 7 6 5 6 5 6 5 5 5 6 5 6 4 5 5 7 8 8 8 8 8 8 8 8 8 9 9 9 9 8
10 10 11 11 10 11 11 11 15 12 9 9 10 10 9 9 8 9 7 8 9 5 5 10 10 3 7 10 10 11 8 7 6 6 8 9 9 9 10 9 8 8 8 9 8 6 4 6 5 7 5 5 5 5 6 5 5 4 5 6 7 8 9 8 8 7 8 8 8 9 9 10 10 11
10 11 12 12 12 11 11 13 16 16 12 11 11 10 10 10 10 9 8 5 4 7 6 5 4 4 2 8 10 11 12 10 6 8 10 9 9 10 9 9 8 7 9 9 9 7 7 7 6 6 5 4 4 5 6 7 6 7 6 6 6 7 8 9 8 8 8 8 8 9 9 10 11 9
9 9 10 12 12 11 9 16 16 17 15 12 10 11 10 11 12 10 10 9 9 7 8 8 5 3 2 3 6 6 9 11 8 10 10 9 10 10 10 9 8 9 9 9 12 8 6 8 7 8 7 6 6 6 7 7 7 7 7 6 5 7 7 7 8 8 9 9 9 10 11 12 12 8
10 10 9 11 17 16 9 10 15 17 16 12 11 10 11 12 11 10 9 10 9 10 11 10 11 11 9 8 7 7 7 8 10 11 11 10 10 10 10 9 9 9 7 10 14 9 7 8 8 9 8 6 7 7 7 7 7 8 8 8 7 7 6 7 6 7 8 9 9 9 11 12 11 8
9 9 9 9 14 18 16 11 12 14 17 15 11 10 10 11 5 4 7 7 8 10 10 10 11 10 11 11 10 9 9 9 10 10 11 11 10 11 10 9 10 9 7 12 16 9 7 8 8 8 8 7 7 8 7 7 7 7 8 8 8 8 7 7 7 6 7 7 9 9 10 12 12 8
9 9 8 9 9 16 16 15 13 14 14 16 11 12 13 12 9 7 7 7 10 12 8 9 11 11 11 11 12 11 12 11 10 10 10 10 10 10 10 9 9 9 6 12 15 10 7 8 8 8 7 6 6 7 7 7 7 7 7 7 7 8 9 9 8 8 8 7 7 9 9 13 12 8
10 9 8 7 4 8 13 14 14 14 15 12 11 15 12 12 9 7 7 5 8 6 9 10 11 11 11 11 11 11 11 11 11 11 11 11 11 9 10 9 8 9 4 12 12 10 8 7 8 8 8 7 6 7 7 7 8 8 7 7 7 7 9 9 9 8 8 8 8 14 10 8 11 10
4 7 10 7 14 10 8 12 13 14 13 10 15 15 14 10 2 3 5 6 7 6 12 11 11 11 11 11 12 12 12 10 10 11 11 11 11 10 9 9 7 9 6 11 12 11 9 8 7 8 8 8 8 7 7 6 10 9 8 7 7 8 8 9 8 8 8 8 6 8 8 8 7 6
7 6 9 11 10 11 8 9 10 11 13 17 15 14 13 9 4 8 9 9 8 10 12 10 11 12 11 11 11 10 12 12 12 11 9 9 10 10 10 8 8 6 5 8 10 11 10 8 7 8 8 8 8 8 7 6 10 8 8 8 8 8 8 8 8 8 8 8 8 8 8 7 8 8
11 13 14 14 14 10 4 3 4 6 7 11 13 12 11 9 9 9 9 10 11 11 11 11 10 12 11 11 10 11 10 11 11 11 11 10 10 9 9 8 8 7 7 8 10 10 10 9 8 8 9 9 9 8 7 6 8 8 10 9 7 8 8 9 9 8 8 9 9 9 8 8 9 8
3 5 7 7 9 10 8 6 8 9 7 7 8 8 8 9 9 9 10 11 11 10 9 9 11 12 10 10 10 11 12 11 11 12 12 11 10 9 10 10 10 9 9 9 10 10 10 10 9 9 9 9 9 9 8 7 9 8 10 9 8 7 9 10 9 9 9 8 8 8 7 8 7 8
4 5 4 6 6 6 7 7 6 6 7 8 9 9 9 10 9 10 12 12 11 12 11 11 9 11 11 11 11 11 11 12 12 11 12 12 12 11 11 11 13 11 10 9 10 10 10 9 9 9 9 8 9 8 8 8 8 8 9 9 9 8 7 10 9 9 9 8 8 8 8 8 9 9
6 5 6 6 7 6 7 7 7 8 8 7 9 10 9 8 10 9 9 12 15 16 12 11 12 12 12 11 11 11 12 12 12 12 11 11 11 11 12 12 12 13 13 11 11 10 9 9 9 9 8 9 8 8 9 10 10 9 9 9 9 8 9 9 9 9 9 9 8 8 8 9 9 10
5 6 6 7 6 6 6 7 8 8 8 9 9 8 9 9 9 9 10 12 14 14 14 12 12 12 11 12 12 12 13 12 12 12 12 12 12 13 12 13 14 13 14 12 12 12 11 10 8 8 7 7 7 8 9 10 9 10 10 9 10 9 9 9 10 8 11 9 8 8 8 8 8 9
5 6 6 7 8 7 7 8 9 9 9 9 10 10 10 10 9 9 10 12 12 14 15 13 13 12 12 13 12 13 13 13 12 12 12 12 12 14 13 14 13 13 13 13 12 12 11 11 10 9 8 8 9 9 10 10 10 10 10 10 9 9 9 10 9 8 9 9 8 8 8 8 8 9
6 7 8 8 8 8 9 8 8 9 9 10 11 11 11 11 11 11 11 12 13 13 14 13 13 12 13 13 13 13 13 13 13 13 12 13 13 13 13 13 13 13 13 13 12 12 12 12 12 12 11 11 10 11 11 16 16 11 11 10 9 9 9 9 9 7 9 10 10 9 9 9 8 6
8 8 8 9 8 8 9 9 10 10 11 11 11 12 13 13 13 13 14 12 12 12 13 13 14 14 13 13 13 12 13 14 14 13 14 13 13 13 13 14 14 13 13 13 12 11 12 12 12 13 12 12 12 12 11 8 18 18 10 11 9 9 9 8 8 8 9 10 10 10 10 9 8 8
9 8 9 9 9 9 10 10 10 10 11 11 11 12 12 12 12 13 14 14 14 12 11 13 14 15 15 15 14 13 14 13 14 13 14 14 14 14 14 14 14 14 14 13 12 12 11 11 12 13 13 12 11 11 10 6 5 8 13 9 9 8 9 8 9 9 10 9 10 10 8 10 10 4
9 9 9 9 10 10 10 10 11 11 12 12 12 12 12 13 13 12 12 14 14 13 14 15 15 15 15 14 12 11 13 14 14 14 14 15 15 14 14 14 14 13 13 13 13 12 12 12 13 12 12 12 11 9 9 7 6 7 12 18 10 8 8 9 9 9 9 9 9 8 9 6 8 10
10 10 10 10 10 10 11 11 11 12 12 13 12 12 13 12 11 13 12 12 13 14 15 15 15 16 15 12 14 16 15 15 15 14 14 14 14 15 14 14 14 13 13 13 13 12 13 13 12 12 11 10 8 4 1 4 3 2 6 9 13 9 6 5 9 9 9 8 8 8 8 7 8 5
9 10 10 10 11 11 11 11 12 12 12 12 13 13 12 11 12 12 11 10 11 14 15 16 15 15 16 16 16 15 14 13 13 14 13 13 12 12 14 11 13 13 13 14 14 13 13 13 7 5 4 7 5 5 3 3 4 4 4 5 12 16 10 2 4 5 8 7 7 8 8 8 8 7
11 11 11 10 11 11 11 12 12 12 12 12 12 12 13 12 12 11 10 7 13 14 14 15 15 14 16 16 13 12 14 14 14 13 13 14 13 11 12 12 14 14 15 14 14 12 11 6 8 8 7 8 6 4 6 7 6 6 5 4 4 5 5 6 6 3 4 4 5 4 5 5 6 8
11 12 12 11 11 11 11 12 12 12 12 12 13 13 13 14 11 9 11 12 14 14 14 14 15 16 16 15 15 16 14 14 14 13 12 13 15 15 15 15 15 14 14 13 11 12 8 8 7 8 9 9 8 5 5 5 5 4 5 5 4 4 5 4 5 5 4 4 5 6 5 4 4 6
10 11 12 12 12 12 12 12 12 12 13 13 13 13 13 13 12 10 10 12 14 14 15 15 15 15 14 14 12 11 14 13 10 13 16 15 15 15 16 15 14 14 13 12 11 10 8 9 9 9 9 8 9 6 7 7 5 5 6 5 4 4 3 3 5 4 3 5 9 10 11 10 8 4
10 10 11 11 12 12 12 11 12 12 12 12 12 13 12 12 10 8 9 12 14 14 13 14 13 11 11 10 10 9 8 9 10 12 13 13 13 12 13 14 13 14 13 12 10 8 9 10 9 9 9 7 10 9 7 5 4 6 4 5 4 3 3 4 4 4 5 5 11 15 12 8 6 7
Wind_Direction
204 201 197 214 234 201 225 222 206 215 204 207 199 218 210 204 193 182 188 163 146 164 212 195 164 165 144 138 131 150 141 133 180 165 144 139 130 105 84 74 70 64 59 66 80 78 74 68 64 57 47 40 33 32 32 32 33 33 53 140 147 136 129 131 135 139 142 140 133 128 123 114 106 101
190 187 186 184 219 228 235 204 205 203 204 201 203 208 213 214 214 187 188 164 168 168 200 193 158 163 145 146 146 140 120 113 235 135 141 135 118 113 101 90 72 67 65 56 53 61 73 71 63 57 48 40 34 28 29 34 34 31 22 22 125 133 138 140 139 140 141 136 132 128 122 117 112 109
200 191 184 189 210 216 210 204 199 203 200 207 200 206 202 202 236 207 202 175 119 178 184 143 155 158 155 153 144 130 129 131 221 143 142 110 116 135 119 122 101 80 73 61 43 37 68 63 56 50 43 36 32 28 27 34 32 28 24 18 85 131 141 142 140 141 140 137 134 129 126 123 118 109
203 197 192 186 203 217 201 204 204 203 206 205 202 195 190 194 209 220 219 217 155 183 186 159 156 161 160 156 150 133 126 120 256 147 133 115 144 167 138 133 119 98 80 71 62 49 66 62 56 52 44 37 31 32 32 30 33 28 21 20 41 151 149 147 147 143 141 138 136 133 129 125 115 103
205 204 204 199 203 197 202 204 204 206 204 205 203 192 193 193 201 202 205 215 144 180 156 151 157 167 161 162 150 152 143 152 153 154 140 150 178 175 160 141 126 112 105 99 92 76 67 67 64 60 54 47 37 34 31 27 29 30 20 13 12 174 158 154 150 146 141 140 139 137 133 121 111 105
201 209 202 204 202 201 206 207 210 208 209 206 202 197 196 197 194 200 207 215 180 168 131 176 182 182 173 160 171 161 154 156 148 156 156 165 186 177 153 154 130 121 117 122 113 99 87 76 66 65 60 49 24 15 16 17 21 13 12 359 348 227 168 155 152 148 144 143 143 140 131 119 113 113
202 201 203 205 198 199 209 207 213 219 221 209 210 204 199 200 194 191 214 211 206 168 175 187 175 184 181 184 173 166 158 158 154 164 146 168 169 165 183 137 114 127 129 134 127 124 119 102 88 74 58 39 12 14 14 11 6 1 3 347 332 249 171 152 153 148 145 144 144 134 121 118 118 118
208 210 207 203 200 199 205 204 200 216 218 212 216 212 202 203 194 197 197 219 214 185 158 201 178 173 172 182 168 177 152 160 174 162 139 160 171 169 141 131 127 129 133 135 137 139 129 117 103 84 57 32 19 18 10 5 4 5 1 345 329 248 165 149 141 138 143 143 128 117 120 124 125 124
211 208 211 207 200 196 203 208 207 211 213 212 215 216 208 203 197 193 200 198 214 205 185 183 105 38 16 201 174 175 166 170 167 137 152 173 161 148 164 147 101 121 135 132 136 136 132 125 110 91 57 19 16 24 12 8 6 9 1 348 322 194 155 136 128 124 117 114 118 120 121 122 125 125
211 211 208 208 205 195 202 209 211 216 214 217 218 217 211 207 196 198 196 203 202 208 200 182 126 196 162 217 188 177 178 171 165 163 165 170 161 158 175 157 147 165 167 176 144 133 142 131 117 104 77 343 349 15 23 15 14 14 4 350 44 142 135 123 116 113 116 119 121 121 120 122 123 123
213 212 210 206 198 198 200 206 209 209 213 219 228 218 217 208 207 201 201 201 201 205 205 197 150 183 194 198 191 185 179 182 178 171 169 173 175 163 176 164 168 157 111 69 55 58 87 133 146 137 179 172 85 39 42 23 24 19 18 20 109 120 119 116 116 119 122 123 123 126 125 121 114 105
211 209 210 203 200 200 196 205 208 206 201 212 222 227 217 214 211 207 201 201 204 200 208 203 172 176 176 209 202 173 180 182 191 191 182 179 174 175 174 182 179 167 144 174 153 117 123 151 137 175 200 192 92 59 72 44 28 24 31 80 117 120 119 119 120 122 123 125 128 123 115 111 108 108
205 205 203 203 200 198 194 198 205 204 222 206 209 213 212 222 217 214 203 204 207 204 208 206 163 166 189 219 176 186 186 192 191 188 195 198 176 184 180 186 185 169 188 189 158 171 177 176 186 195 191 120 190 98 58 38 32 30 43 105 117 118 117 119 122 124 127 126 121 115 112 109 106 104
210 209 210 205 202 184 186 191 201 190 207 238 276 239 215 227 220 233 218 208 208 210 208 211 192 180 193 203 184 189 194 192 191 186 192 210 177 193 193 175 180 189 210 190 189 175 171 231 144 119 88 103 49 51 41 28 12 26 68 117 120 117 118 122 126 127 127 125 121 116 113 110 111 111
217 219 219 214 191 191 187 192 193 201 210 220 229 243 244 227 226 222 214 217 214 211 212 210 211 206 200 199 187 197 189 191 196 189 190 206 179 198 199 197 160 194 205 205 204 172 148 218 176 137 96 76 57 61 53 14 32 50 94 118 125 122 122 125 126 127 125 122 115 114 115 113 111 109
220 222 222 222 208 205 208 208 197 204 209 214 229 244 253 273 290 300 275 205 234 228 222 221 220 212 204 198 194 194 189 189 195 193 193 197 196 192 204 224 199 165 197 196 213 173 152 240 119 140 103 91 75 68 53 40 53 79 101 113 117 124 129 130 132 130 127 124 123 123 121 121 117 113
212 218 217 220 222 208 203 215 212 204 200 207 215 213 226 252 266 284 281 248 215 317 291 250 199 224 209 206 197 194 193 186 189 192 196 198 200 199 203 226 156 142 179 207 211 202 166 194 188 147 123 114 121 120 76 46 77 94 115 113 116 117 122 126 128 127 127 132 133 128 124 124 122 117
207 207 215 222 216 219 209 214 217 213 201 193 197 207 215 219 215 220 244 268 261 228 240 259 270 230 214 217 201 191 192 189 192 194 197 194 200 204 203 218 164 143 171 209 199 211 172 205 212 135 135 125 109 93 78 77 85 106 122 128 125 125 123 126 128 133 136 132 127 130 132 129 127 126
203 202 205 213 224 219 215 215 217 217 210 198 204 212 210 220 220 214 212 214 229 225 229 231 224 273 247 110 23 328 185 187 205 197 203 197 198 200 203 189 143 162 178 207 219 231 166 189 231 127 141 146 131 120 106 76 99 108 131 134 128 120 125 132 134 131 132 133 135 134 132 131 128 122
209 206 203 206 212 218 222 206 208 226 224 211 211 211 209 216 221 226 227 194 192 220 250 228 217 225 225 126 162 162 186 172 196 196 210 205 198 201 192 204 185 199 177 201 210 244 167 173 225 131 146 153 142 135 122 100 96 120 128 133 126 124 123 129 131 136 142 145 140 137 136 134 128 122
216 213 208 207 208 209 219 191 181 199 228 223 223 224 221 219 222 226 213 136 152 140 79 33 17 8 159 148 142 139 147 184 175 209 205 204 198 198 203 203 193 199 182 189 208 237 211 171 208 138 163 173 145 148 129 133 115 122 125 125 129 130 131 132 141 148 151 150 148 145 147 146 148 147
217 217 213 221 214 211 214 171 177 185 197 221 225 227 225 223 225 222 211 165 135 105 94 78 62 5 7 170 170 169 171 187 193 201 213 199 200 207 212 208 196 202 189 185 194 205 233 165 203 153 146 152 171 145 136 135 133 135 128 117 126 136 139 141 148 156 152 152 158 161 162 168 175 182
221 220 205 207 229 230 213 165 180 181 190 213 222 227 231 233 228 221 212 197 196 200 212 209 196 184 158 188 197 184 188 199 198 209 223 212 209 211 211 216 200 218 207 180 180 204 203 167 193 165 169 188 153 157 142 155 156 164 171 164 155 138 148 145 150 159 158 162 173 176 179 189 206 214
218 219 221 191 205 226 240 170 184 181 192 207 214 222 230 237 236 230 226 213 200 212 216 209 200 205 192 194 202 193 190 206 212 213 220 227 215 217 217 216 216 225 211 161 172 204 203 186 192 188 209 196 166 167 161 159 173 169 168 173 181 146 150 148 151 170 166 173 181 190 196 209 216 256
229 220 218 231 194 202 217 189 186 195 197 205 214 212 224 227 241 15 262 232 233 221 202 208 203 199 199 201 199 197 197 199 205 213 223 228 224 221 223 215 221 226 231 142 169 195 205 189 197 193 220 271 127 152 163 161 168 175 182 183 188 169 189 193 187 173 174 185 188 199 209 226 228 252
259 241 229 234 193 190 203 208 188 195 204 212 222 222 216 220 188 160 243 244 223 223 202 207 213 206 203 202 210 211 210 204 197 204 209 221 225 219 230 228 225 221 204 148 165 185 205 196 205 188 207 211 176 158 154 171 170 170 190 195 202 176 188 193 197 196 183 194 190 199 204 216 243 230
250 264 264 251 357 188 200 206 197 194 201 206 226 233 236 228 217 142 231 258 256 217 234 220 220 210 208 205 202 205 210 201 195 198 203 209 214 219 226 225 237 234 197 155 176 188 205 207 199 197 200 200 219 177 180 174 172 164 185 193 202 186 190 205 204 204 205 198 208 165 185 194 226 258
272 279 284 330 354 337 240 208 201 199 193 208 222 234 244 253 262 149 198 229 250 239 241 234 222 214 213 212 209 204 206 198 200 199 201 204 206 215 217 221 231 231 176 163 174 193 198 211 192 202 213 202 211 208 205 197 147 171 179 181 194 193 191 205 207 210 207 208 172 156 209 207 203 210
286 320 327 325 330 338 306 255 222 204 203 213 220 220 229 238 209 206 207 207 211 231 237 234 239 229 219 217 216 211 206 195 195 190 198 202 206 209 214 211 211 203 172 176 180 193 197 209 201 192 208 214 218 229 224 208 152 175 174 167 191 193 196 201 208 210 207 210 208 204 214 220 212 211
306 301 297 301 299 287 259 230 237 229 219 214 223 219 212 215 217 212 209 213 219 229 236 237 235 240 231 223 215 211 206 195 192 180 191 193 195 198 197 190 194 189 193 186 190 200 199 200 205 194 202 211 223 233 218 230 171 178 157 183 204 169 192 196 204 209 205 204 212 214 220 216 225 210
255 260 262 275 286 286 282 256 251 243 219 199 220 222 217 215 213 210 207 212 214 222 233 235 236 239 231 225 212 207 204 195 192 186 182 188 189 190 196 202 203 193 194 198 203 207 203 197 200 195 207 209 214 227 247 223 233 188 167 190 209 197 187 194 195 205 198 205 207 217 218 220 216 207
330 318 293 254 258 266 268 257 245 239 235 225 226 228 218 216 215 215 219 223 228 227 229 236 232 239 230 222 215 208 198 196 201 194 193 196 195 197 201 206 215 206 191 192 203 208 214 201 197 198 210 214 218 212 223 235 236 232 179 186 210 233 173 184 192 195 192 196 203 212 207 213 219 219
314 305 284 280 277 271 253 242 235 228 223 222 226 230 227 216 211 209 205 215 222 224 223 229 227 224 225 220 211 203 206 206 206 200 201 201 207 199 205 209 210 210 209 194 197 194 198 203 199 208 205 216 226 233 221 223 226 235 240 200 188 211 227 202 214 202 177 196 207 209 206 214 219 224
287 268 265 262 261 258 253 242 231 223 217 219 222 222 222 214 206 204 208 214 219 220 221 222 225 224 221 218 208 209 213 208 203 194 194 204 206 208 210 212 214 211 218 202 189 195 191 195 192 199 215 226 233 232 232 236 234 233 232 239 232 216 217 221 218 193 172 198 202 210 215 216 216 217
253 256 254 253 250 246 246 248 243 232 223 219 220 225 219 212 209 201 207 214 217 218 218 221 225 224 221 220 212 213 213 212 200 193 193 205 202 207 210 215 214 211 212 217 195 195 189 188 190 192 202 211 222 231 236 246 246 237 243 237 235 236 227 227 227 197 177 213 211 226 238 235 225 212
251 244 245 246 246 245 243 237 239 238 233 226 224 226 223 217 211 205 210 209 214 216 216 216 219 224 222 222 219 216 213 210 203 195 191 200 203 207 210 214 215 213 212 213 204 187 187 188 189 197 200 206 216 229 223 209 220 244 242 241 234 234 233 229 221 208 202 224 227 231 242 248 251 230
248 242 239 243 240 238 240 239 238 239 238 236 232 230 229 225 219 216 215 204 213 218 217 214 214 216 212 214 219 216 214 209 208 201 202 199 200 203 208 212 213 215 214 211 208 191 187 196 196 201 206 211 216 222 236 179 206 220 237 241 237 225 225 230 219 206 210 223 234 234 242 252 250 249
244 241 242 241 240 236 236 240 238 238 242 244 243 239 234 235 232 227 220 213 212 215 213 213 213 215 215 216 214 212 213 208 208 202 204 204 202 203 208 214 210 209 213 209 206 200 193 197 199 204 208 218 222 227 237 169 169 216 224 234 240 224 214 217 223 214 223 227 240 239 239 248 252 268
236 241 240 243 243 242 237 234 235 236 236 237 238 240 238 236 234 229 219 216 212 209 213 215 213 213 213 211 207 212 216 207 205 206 203 208 204 203 205 210 211 206 207 210 208 200 197 205 204 207 211 218 226 230 242 231 195 188 188 201 224 239 223 213 219 225 230 232 231 244 251 241 88 109
225 229 237 242 245 244 243 237 233 235 239 238 239 239 239 235 234 236 230 216 214 209 209 211 213 213 214 209 218 217 212 207 206 209 207 207 205 206 206 205 205 201 203 210 208 201 204 208 206 208 211 221 232 254 95 70 63 107 135 192 218 237 253 251 229 227 237 234 232 236 240 240 245 227
244 235 233 234 241 245 245 243 238 236 235 238 240 242 243 235 230 232 233 222 209 214 211 211 207 212 215 214 212 208 210 206 206 210 210 209 203 198 200 194 203 205 208 211 210 205 201 208 188 132 187 208 144 128 187 215 204 176 178 181 198 223 243 3 313 280 245 246 239 236 243 242 250 257
251 249 248 243 240 243 244 244 241 240 239 237 239 239 237 236 229 225 230 226 220 222 218 216 211 209 214 215 213 208 210 206 206 206 209 212 209 198 200 199 208 209 213 212 210 205 200 152 115 155 177 201 187 194 221 227 227 227 202 179 153 149 190 224 244 257 299 311 291 239 229 246 256 254
246 250 250 248 243 243 244 244 243 241 241 238 238 237 238 237 228 216 228 226 222 219 219 219 217 214 214 214 216 212 204 206 206 207 205 208 214 209 202 203 208 209 211 215 203 200 170 138 164 166 184 199 198 190 209 214 211 211 132 163 165 178 156 153 201 221 246 237 239 263 280 291 254 247
248 248 247 247 248 243 242 242 244 242 242 243 242 240 239 240 230 219 219 223 222 219 217 217 217 217 212 214 214 215 208 208 201 208 212 210 212 213 207 199 198 206 207 200 191 179 150 163 165 173 181 194 191 189 207 209 206 208 183 203 167 159 175 182 177 171 221 226 236 235 247 241 248 305
250 249 249 248 248 249 248 245 243 244 245 246 242 243 240 237 228 210 213 224 225 222 215 214 217 216 210 203 202 205 197 215 204 207 207 205 209 209 200 194 186 195 196 191 166 151 158 167 165 179 189 190 199 197 200 209 207 205 178 102 140 175 220 207 198 203 211 224 207 208 226 230 249 264